map of BRC home
Great Circle Mapper logo
BRC - Airport
Location
City:  San Carlos de Bariloche, Río Negro, Argentina
ICAO / IATA:SAZS / BRC

Details
Type:Airport (Aerodrome, Airfield)
Use:Public/Civil
Latitude:41°09'04"S (-41.151171)
Longitude:71°09'27"W (-71.157541)
Datum:WGS 1984
Elevation:2776 ft (846 m)
Variation:7.0°E (WMM2010 magnetic declination)
Runways:1
Longest:7703 × 157 ft (2348 × 48 m), paved

Time
Time Zone:UTC-3
Local Time:

Weather
METAR:SAZS 241900Z 32019KT 9999 SCT035 13/01 Q1017
TAF:SAZS 241700Z 2418/2518 32020G30KT 9999 BKN025 TX17/2518Z TN03/2510Z
BECMG 2504/2506 29015KT

Related Locations
Nearby:
Farthest:RLK: 12381 mi / 19925 km
Bayannur [Bayannur Tianjitai Airport], Inner Mongolia CN

Find:

   beyond  
but within

Other Information
Maps:
NOTAMs:
Links:
Sources:

  
flag of Argentina   

Sectional Chart

Flight Planning
at skyvector.com

Satellite Image

Google Maps Satellite View

 

Copyright © 2004-2014 Karl L. Swartz. All rights reserved.
The Great Circle Mapper name and logo are trademarks of the Great Circle Mapper.
All other trademarks mentioned herein belong to their respective owners.
Please see credits for attibutions and further copyright information.

  Follow gcmap on Facebook Follow gcmap on Twitter

hCard Microformat

Geo Microformat